GFSMA_con_3kmhel_132.txt.gz
Helicity
76 95 88 87 68 77 42 73 37 33 7 45 80 52 46 47 69 96 93 62 71 91 121 91 98 110 115 128 100 11 52 81 63 80 57 88 73 65 50 45 58 47 41
73 86 69 83 73 79 56 57 37 83 48 56 39 33 53 56 54 75 116 59 105 97 113 108 110 124 94 96 115 40 53 67 88 88 91 99 82 59 57 47 50 40 43
64 82 91 80 77 62 81 59 60 63 75 89 72 52 44 40 85 93 155 130 89 95 121 121 132 117 105 98 83 44 64 86 119 113 112 120 91 72 68 63 49 38 37
82 76 111 87 74 44 90 92 66 82 76 79 114 96 75 48 54 66 128 138 142 115 92 122 113 124 137 97 89 75 76 99 99 145 130 123 133 84 82 76 57 46 36
119 104 90 79 84 59 83 100 90 98 109 99 114 110 89 74 62 93 111 148 153 151 141 112 120 130 139 103 120 83 87 115 115 87 154 122 141 134 97 79 75 44 44
135 130 121 148 118 88 87 111 102 89 110 92 105 118 122 116 107 104 106 129 157 163 174 189 170 124 127 123 128 109 88 99 109 133 135 104 127 132 112 82 69 55 52
158 129 180 167 132 113 102 129 154 142 157 128 94 123 107 115 123 123 127 129 164 175 151 166 227 163 133 141 136 114 100 82 109 134 142 152 123 124 100 100 75 66 60
159 134 212 161 167 121 135 195 171 141 111 110 137 144 125 124 129 144 149 152 178 204 194 169 217 223 178 157 135 131 117 83 104 129 159 146 160 146 121 102 95 78 72
203 162 175 287 217 175 138 195 204 176 182 144 124 206 174 137 99 108 103 92 67 124 168 185 204 241 217 218 171 146 162 136 107 129 177 180 170 156 141 103 105 88 81
288 215 196 227 230 217 164 173 213 190 203 182 196 139 116 173 168 165 125 73 65 60 95 138 211 230 234 239 211 177 164 178 150 106 173 253 170 148 125 111 114 82 88
266 290 248 201 196 266 177 148 176 211 205 186 227 230 127 67 113 175 186 194 167 119 94 159 185 249 239 198 240 220 197 194 169 136 193 249 182 142 119 97 93 80 79
211 232 226 140 117 167 136 94 178 198 207 185 209 184 208 252 156 223 227 188 250 161 141 150 176 168 165 215 225 221 199 206 179 167 216 237 193 141 91 94 67 76 87
450 406 258 196 121 108 100 144 182 195 194 222 156 197 188 214 228 173 217 230 225 164 180 185 234 239 232 227 223 214 200 201 201 213 245 285 216 108 89 52 56 70 87
293 305 262 222 99 114 111 157 184 206 207 209 186 145 178 184 214 230 257 250 240 192 118 133 259 336 293 278 235 184 220 219 216 188 227 269 148 117 112 64 51 86 98
428 156 10 198 216 94 100 146 192 189 215 214 188 193 181 211 201 219 262 351 230 174 159 143 303 331 311 288 243 248 226 223 203 186 178 204 173 79 132 77 141 114 106
365 185 195 148 172 272 252 149 154 145 140 174 197 188 189 214 197 229 320 312 180 163 171 191 250 303 307 313 281 246 237 252 203 180 197 225 209 127 148 91 156 132 113
244 105 138 231 225 247 308 314 309 233 141 125 124 149 155 172 222 223 302 283 205 213 249 216 218 237 308 355 321 261 247 242 238 193 191 253 231 162 100 91 162 148 147
299 275 248 238 285 272 296 275 262 253 205 222 103 149 156 176 168 174 194 215 83 206 260 211 189 301 336 318 277 326 284 227 219 204 182 203 298 163 173 102 145 166 156
200 226 262 274 294 310 330 293 244 231 251 249 278 337 223 170 182 202 143 159 242 195 250 272 229 285 259 300 324 323 311 234 209 186 201 214 262 206 180 153 148 162 109
199 170 159 177 219 283 346 308 214 179 156 212 258 342 362 351 367 351 163 163 174 233 269 306 259 222 282 356 375 340 293 227 210 193 213 215 236 247 212 196 218 160 200
186 146 126 176 101 143 236 264 199 234 262 161 231 204 256 372 343 355 254 253 251 203 289 427 258 280 350 421 376 396 261 230 214 296 291 273 286 265 268 215 217 174 132
315 279 351 282 263 323 315 399 116 159 121 160 157 90 116 221 280 325 329 280 153 163 161 233 285 285 266 346 442 358 230 284 294 307 336 309 328 313 300 277 218 177 187
90 104 139 129 135 193 250 217 154 19 136 111 233 216 116 92 76 140 179 139 84 88 6 86 146 227 276 396 508 420 233 222 281 293 356 338 366 356 342 341 298 274 260
64 45 57 69 49 91 167 173 77 37 11 19 24 49 94 129 169 141 86 77 69 28 15 21 109 248 255 473 251 319 281 223 369 400 383 368 408 404 348 365 283 246 260
20 15 -7 15 33 39 123 131 74 47 43 27 10 5 20 27 134 149 43 75 108 63 98 91 104 149 312 566 684 356 287 332 344 394 437 411 414 496 415 436 359 258 248
7 0 -3 -8 30 24 104 116 85 15 47 34 37 39 72 48 58 52 -28 -1 63 134 148 160 118 104 115 237 327 345 418 293 374 427 425 516 497 492 440 487 473 457 345

GFSMA_con_3kmhel_135.txt.gz
Helicity
138 130 139 144 133 125 92 68 44 44 21 16 20 32 28 25 71 85 80 58 56 39 70 103 110 117 113 118 123 100 95 63 74 66 38 54 111 81 76 63 68 63 50
156 156 174 153 137 131 94 82 55 32 19 23 23 39 16 44 84 84 70 46 39 65 80 102 108 94 85 97 111 100 44 38 68 64 54 76 110 88 76 67 65 57 51
158 177 184 181 140 135 96 80 51 40 35 21 48 59 42 44 86 88 104 86 70 76 116 84 98 104 95 95 88 87 65 67 83 103 89 83 145 124 77 80 58 64 56
165 196 177 161 157 133 108 77 77 49 57 61 49 59 40 54 67 87 129 138 123 97 100 106 111 123 115 94 91 79 66 62 114 93 110 114 157 136 78 87 55 70 55
191 190 190 164 178 150 136 96 104 103 77 64 56 55 69 64 43 93 128 148 156 152 159 109 139 130 127 100 108 90 81 70 91 120 93 92 164 203 128 90 73 64 55
213 172 196 184 173 168 131 141 128 113 116 80 74 79 73 93 86 68 106 142 160 154 159 152 123 122 125 127 112 107 101 83 88 108 138 141 139 201 158 102 82 84 59
294 243 236 213 194 180 181 170 171 121 130 134 123 64 53 54 54 71 98 119 154 160 180 175 187 176 134 136 126 108 113 112 99 103 134 169 154 163 164 136 137 80 69
240 269 236 247 273 221 226 209 189 220 179 191 192 183 122 93 83 84 96 120 144 158 179 210 208 221 197 175 154 145 126 116 100 105 112 151 166 182 166 150 138 97 89
288 242 215 272 310 295 282 211 206 224 202 203 209 225 175 139 137 129 109 104 98 123 131 141 186 221 229 213 182 175 166 144 116 112 120 168 183 178 164 152 157 132 90
157 268 260 266 301 308 272 285 246 199 214 159 220 186 207 178 165 162 100 101 130 133 114 112 104 175 212 255 233 220 186 162 126 125 131 163 196 179 189 160 140 160 94
98 256 274 278 339 269 249 244 280 230 241 223 195 232 138 130 146 176 198 185 172 137 112 135 131 153 213 241 263 251 215 180 156 145 149 173 200 206 208 212 164 132 133
106 145 342 298 355 287 273 265 240 212 238 210 178 190 184 189 121 174 201 213 243 208 166 156 136 209 235 237 270 269 246 204 185 166 167 174 212 228 237 230 214 148 129
185 210 383 542 325 255 207 234 240 182 200 191 186 201 179 171 208 179 197 226 256 230 247 227 228 208 188 190 214 223 204 209 210 188 177 182 209 256 264 252 170 193 104
257 61 -21 504 420 433 175 168 196 203 182 185 155 180 191 185 202 245 233 224 251 234 253 202 225 264 214 195 167 193 219 197 209 216 211 228 204 277 338 310 193 99 96
331 221 214 241 427 552 331 44 194 197 182 167 139 157 195 202 195 198 202 251 252 228 239 231 237 304 259 260 236 213 240 195 192 217 236 244 228 247 373 375 216 130 91
355 649 372 206 346 262 394 155 237 265 223 163 113 139 159 149 162 188 228 229 264 171 241 227 147 154 256 281 264 283 250 229 212 208 229 232 240 238 313 379 204 149 147
483 390 535 517 515 489 272 211 233 225 242 263 212 236 215 132 126 136 143 161 222 289 281 212 189 71 161 239 280 346 303 250 231 206 218 221 244 263 285 281 263 179 120
401 430 550 462 199 193 168 160 142 186 203 197 183 149 174 181 273 265 146 155 196 220 316 260 112 195 149 213 265 328 327 285 274 226 211 228 237 246 246 305 261 236 148
434 366 397 443 329 343 253 213 158 146 123 179 225 212 222 200 213 245 228 235 177 176 255 201 118 142 215 302 305 306 307 288 306 285 200 210 221 217 221 231 300 212 164
474 407 416 469 494 477 398 307 312 278 236 204 228 219 251 266 287 203 232 219 240 226 225 163 183 215 224 279 306 321 248 292 301 272 247 210 183 168 185 179 251 302 197
304 367 388 406 384 442 398 282 277 293 273 215 235 225 197 302 297 312 129 153 119 23 188 221 212 182 222 263 308 297 133 311 297 371 272 252 222 192 172 164 178 271 233
153 104 133 155 189 231 234 274 170 166 235 318 228 238 172 198 298 327 236 159 158 38 70 73 125 162 165 99 175 287 364 294 346 374 324 245 280 215 226 224 170 182 240
97 114 106 122 162 184 193 158 148 75 68 102 98 84 123 159 232 313 347 182 98 69 1 10 83 87 71 94 95 153 299 361 334 400 329 282 300 263 281 272 217 222 217
32 46 61 66 74 119 150 130 93 63 47 44 40 37 43 54 87 93 87 137 138 107 128 101 63 46 72 127 112 119 90 184 463 559 299 306 395 328 317 289 240 243 223
-23 -18 -12 4 20 63 123 113 67 40 43 36 17 25 36 26 68 88 20 34 55 88 88 80 86 99 143 145 129 82 95 317 406 406 421 491 428 407 380 377 334 241 224
-25 -31 -24 -5 47 25 102 98 44 1 29 27 27 43 88 67 75 67 -3 -8 22 52 38 75 87 92 101 131 208 162 180 123 150 388 470 488 526 471 375 376 389 314 330

GFSMA_con_3kmhel_138.txt.gz
Helicity
194 182 181 187 161 147 119 105 81 61 46 14 -13 26 26 46 45 38 30 45 42 51 69 73 80 73 88 95 89 100 118 115 94 91 110 74 56 100 86 69 69 60 62
237 224 202 187 176 157 146 124 95 63 53 44 -2 10 20 34 40 62 73 48 43 20 30 64 55 76 98 92 83 80 92 85 80 67 86 81 92 131 99 63 58 57 51
243 249 235 205 183 169 153 139 96 74 82 65 25 19 -0 37 60 81 61 80 41 54 35 42 68 88 95 96 84 84 78 63 60 70 77 104 89 142 119 83 61 50 51
218 261 269 229 203 193 172 148 118 75 71 93 50 21 27 53 64 84 98 106 97 75 39 60 69 65 64 82 90 77 73 56 69 82 83 108 128 137 153 117 100 69 42
182 232 244 228 239 211 189 160 129 106 88 60 63 43 21 56 82 82 101 106 134 109 93 82 105 82 70 80 70 75 65 70 67 74 95 109 126 174 174 130 110 83 59
104 200 202 233 260 223 197 173 151 124 112 92 69 54 45 36 46 87 92 102 129 149 150 133 105 75 98 94 95 69 68 58 78 80 96 109 125 146 156 151 150 124 75
167 93 123 220 246 222 195 189 191 163 134 162 188 107 76 53 48 25 85 101 114 141 147 146 154 162 142 125 107 90 78 76 74 91 103 113 143 169 220 157 146 139 124
179 72 185 161 215 238 215 207 210 194 151 192 180 188 109 75 17 33 17 61 107 150 153 143 140 152 147 143 147 147 131 111 95 99 128 120 136 162 203 209 163 163 126
39 264 61 96 202 277 278 245 209 217 185 199 199 216 188 129 123 135 85 76 78 136 135 125 144 152 162 145 130 145 166 168 146 123 129 141 138 155 173 202 187 182 137
24 80 55 62 112 255 289 260 244 245 235 228 234 208 237 174 141 116 124 119 129 92 105 125 141 149 156 162 161 162 177 179 168 162 151 149 167 169 161 181 182 197 174
5 62 57 59 116 115 245 274 258 288 287 270 255 259 232 258 201 175 145 138 133 73 78 93 99 123 162 157 163 164 181 185 168 161 155 157 171 191 187 171 167 183 195
144 66 -52 -107 186 308 123 336 302 274 277 265 267 247 234 223 218 236 186 164 151 138 144 164 127 119 126 167 177 188 200 194 162 157 165 169 184 217 205 185 166 183 231
145 83 149 27 -41 40 247 298 373 308 311 313 278 213 218 200 235 219 208 166 144 144 146 159 168 173 179 173 194 213 206 206 177 170 165 189 201 234 244 217 193 206 237
233 307 128 22 47 77 426 792 298 246 240 275 248 211 198 175 216 237 186 174 149 148 181 217 159 197 196 199 211 184 211 180 180 175 167 181 210 252 268 273 230 242 234
208 214 221 178 233 108 562 292 261 255 259 134 167 186 197 205 235 212 212 190 197 132 129 176 223 180 175 191 176 226 215 186 174 158 146 166 196 233 266 282 291 282 299
390 431 303 291 495 535 543 253 224 149 159 225 377 442 447 421 228 142 183 201 199 200 190 197 160 149 223 181 173 200 189 186 167 167 140 155 167 219 249 274 292 322 361
517 524 500 523 455 456 523 588 321 222 245 226 95 226 378 324 251 210 237 209 141 136 172 180 169 154 220 194 163 103 138 169 218 194 167 149 170 207 224 262 295 338 413
638 555 533 617 665 582 460 626 639 507 350 570 493 323 153 133 180 214 154 184 132 122 140 168 169 245 254 163 207 113 177 173 181 231 207 178 178 197 200 234 270 311 399
642 669 583 497 433 406 440 522 182 282 285 175 193 139 142 145 177 203 185 149 133 118 100 116 180 170 166 195 207 199 186 167 179 215 225 185 204 219 205 205 229 283 339
543 393 446 420 366 377 358 246 141 135 163 256 279 260 276 257 222 206 183 216 202 179 148 136 136 115 133 127 264 150 212 220 199 202 226 211 228 211 197 219 195 216 279
342 354 396 390 425 448 425 306 280 245 249 280 289 286 335 385 404 309 226 270 262 236 228 200 198 170 124 93 259 179 136 208 238 252 238 190 225 274 245 214 171 158 195
182 198 264 315 304 266 229 207 175 175 186 188 215 178 171 253 306 317 267 247 176 139 104 20 39 104 126 142 121 123 121 128 151 179 236 213 328 230 277 317 235 201 158
138 133 140 143 160 155 162 127 101 37 36 56 56 76 73 85 137 140 145 134 104 119 73 79 107 103 128 126 104 95 51 62 61 128 203 224 348 296 309 312 284 247 208
118 162 168 141 121 144 148 125 83 30 15 6 16 27 28 44 74 69 44 72 87 94 102 72 55 43 50 75 64 65 141 39 14 10 80 151 312 319 411 384 296 236 172
18 47 58 88 126 152 173 141 91 56 31 22 4 10 17 22 89 101 16 28 48 83 101 122 99 98 101 79 64 30 66 60 13 20 68 110 219 380 467 353 280 224 222
-23 -21 1 16 37 55 124 115 65 36 44 24 22 34 73 43 73 68 -31 -19 -1 28 35 61 114 134 126 130 132 71 33 18 26 5 127 190 129 235 350 258 330 344 316

GFSMA_con_3kmhel_141.txt.gz
Helicity
135 183 192 210 211 185 163 146 124 115 72 67 65 72 62 41 27 30 16 25 17 27 55 46 51 58 56 53 72 65 77 81 93 82 71 74 79 70 83 93 95 91 83
129 191 223 222 213 210 179 166 156 135 103 96 69 71 75 54 44 42 26 8 24 3 35 68 58 53 48 47 59 70 86 93 77 81 84 93 87 93 111 87 76 84 70
105 132 199 225 251 236 174 160 170 164 139 120 81 68 94 55 62 52 57 35 14 25 20 13 46 54 54 55 66 63 74 81 76 71 77 103 109 105 107 117 79 75 54
167 88 158 215 237 247 228 181 180 174 146 135 100 82 79 102 75 67 79 75 39 51 24 -2 11 17 39 59 67 74 60 72 68 70 89 97 122 140 108 117 96 71 59
36 146 110 183 204 256 229 213 178 192 177 147 122 102 72 103 95 74 103 103 64 60 77 35 37 55 56 61 54 57 59 60 65 60 71 115 130 138 130 140 131 106 77
15 -18 116 177 198 251 229 237 193 182 186 172 136 104 72 83 90 84 88 100 87 77 81 80 32 33 63 68 50 59 65 58 63 63 68 94 130 163 148 154 154 139 108
91 -70 -39 116 126 208 188 216 222 183 197 186 220 150 87 49 67 74 85 87 88 95 91 110 100 94 69 82 86 73 86 61 62 71 72 98 114 150 180 182 172 136 102
151 121 -79 -53 76 220 121 193 238 213 187 224 207 207 170 93 26 51 76 78 78 97 98 107 121 121 100 74 106 115 91 84 78 86 83 95 120 154 173 193 205 181 145
82 146 184 -62 179 240 110 139 200 222 207 215 208 231 245 157 91 112 67 91 73 104 104 110 114 129 121 122 116 105 111 96 98 118 119 108 101 162 175 183 202 199 179
106 89 152 162 112 258 162 186 117 212 242 217 246 194 233 174 152 137 133 103 100 109 128 139 115 102 117 114 114 115 107 121 133 121 132 122 124 143 171 171 179 198 204
140 105 111 180 119 157 324 3 116 124 258 234 252 251 259 249 174 134 151 144 141 116 112 116 132 132 149 157 132 109 117 149 131 137 138 135 146 144 164 174 170 175 199
161 175 137 110 166 104 167 120 89 89 207 257 265 274 242 256 258 195 163 147 141 123 119 95 91 115 139 145 143 134 151 166 175 163 152 147 150 165 164 177 175 171 182
150 154 182 169 205 125 157 7 140 98 166 159 239 289 261 246 223 216 157 138 127 129 131 107 112 120 141 172 149 153 161 168 171 176 171 165 166 162 185 190 188 192 182
87 150 149 200 202 171 192 52 150 234 204 124 247 252 241 264 294 268 204 189 145 126 122 113 88 120 142 184 144 143 139 130 175 140 173 193 187 187 195 225 215 213 197
142 175 214 261 294 265 202 311 335 370 522 362 339 183 240 236 216 114 123 194 149 89 96 73 104 104 141 173 167 130 163 93 149 162 180 169 169 185 195 222 244 234 219
365 312 339 424 470 448 330 378 655 498 447 503 393 124 167 160 202 140 204 151 157 193 176 111 126 106 99 132 120 146 164 131 105 126 154 116 161 173 196 196 226 242 227
473 453 527 585 612 554 445 382 399 677 592 626 364 450 248 352 201 280 244 236 170 311 207 135 91 90 130 105 125 182 170 158 52 98 123 145 139 143 185 197 204 231 228
629 578 669 704 650 570 591 612 373 489 501 637 479 400 629 385 358 331 224 276 184 215 162 136 98 79 43 105 142 176 178 126 100 96 -31 111 152 144 151 198 204 213 206
573 951 846 769 766 624 537 521 550 495 430 545 610 505 387 470 530 364 411 306 113 23 81 97 104 149 115 178 212 130 108 134 164 128 116 110 133 140 172 158 181 209 196
648 726 732 556 479 421 384 364 399 435 284 264 271 319 272 187 175 226 57 15 46 15 35 97 120 172 217 199 230 244 260 237 183 131 148 140 128 106 155 172 193 211 221
224 235 248 312 347 328 270 238 239 258 261 245 301 255 255 228 213 189 141 179 170 107 72 106 157 187 197 227 238 187 159 120 135 114 77 85 164 189 169 153 122 179 222
92 133 169 211 276 287 226 193 164 143 131 128 168 175 178 240 208 186 155 130 120 134 146 144 117 143 173 181 153 129 103 91 65 161 154 142 151 134 173 176 153 187 231
136 174 138 140 142 124 100 83 63 42 63 85 100 97 107 134 165 122 118 101 89 85 33 26 54 52 53 65 63 126 146 93 75 144 87 24 18 59 0 136 171 170 206
76 42 68 66 71 78 112 76 45 5 11 37 43 39 42 65 95 101 110 117 113 119 108 68 51 39 36 39 32 26 15 32 28 32 58 12 28 64 64 117 199 178 225
29 31 12 35 51 67 96 93 26 -24 -23 6 19 37 25 30 82 81 28 48 71 120 153 165 146 139 121 106 79 19 19 -32 -96 -10 27 17 -7 -32 9 48 74 111 126
-43 -34 -14 3 37 30 83 74 19 -43 -8 -7 12 22 89 41 65 56 -14 -10 17 38 75 136 190 235 240 209 169 84 19 -10 -23 -97 31 -50 -17 7 -77 -10 52 97 57